STARLINK-33861, 63678

Orbit data source: Space-Track

STARLINK-33861, 63678 is a payload satellite owned by SpaceX/Seattle (US) in LEO that was launched on Mon, 28 Apr 2025 UTC via an FALCON 9 launch vehicle from the Air Force Eastern Test Range (AFETR). Payload-class satellites include a variety of spacecraft equipped with specific instruments for various scientific and technological missions. These include communications satellites like Starlink; space stations such as the ISS; scientific satellites like the Hubble; Earth observation satellites from companies like Planet Labs, Umbra, and HawkEye 360; GPS; miniature CubeSats for education and research; and military/defense satellites.

Loading next visibility...
Identifier
63678, 2025-085Q
Orbit
LEO
Country
Flag of USUS
Related business
Manufacturer
SpaceX/Seattle
Mission
Operational Commercial Communications
Bus & Motor
STARLINK V2MO, Unknown motor
Mass
575 kg wet, ~530 kg dry
Launch date (UTC)
2025-04-28 (1 year ago)
Launch vehicle
FALCON 9
Launch site
Air Force Eastern Test Range (AFETR)
Object type
Payload
Rocket body
Debris
Shape & HBR
Box + 2 Pan, 17.7 m
Radar Cross Section
36.964 m², Large (>1 m²)

Expand to show TLE details & history
Last TLE update: 19 hours ago

TLE from 19 hours ago
0 STARLINK-33861
1 63678U 25085Q   26171.05997595  .00017402  00000-0  64007-3 0  9990
2 63678  43.0030 173.0022 0001913 280.7921  79.2715 15.27596449 64519
Epoch: 2026-06-20T01:26Z
TLE epoch observation values (Epoch: 2026-06-20T01:26:21.922Z)
Latitude
-0.00002°
Longitude
-116.86919°
Altitude
482.532 km
Speed
7.626 km/s
True Right ascension
11h 32m 00s
True Declination
0° 00' 00"
Sunlit
Object was in daylight at epoch
Visualization orbit readout
Latitude
Unknown
Longitude
Unknown
Altitude
Unknown
Speed
Unknown
Apparent Right ascension
Unknown
Apparent Declination
Unknown
Sunlit
N/A
Visualization observer readout
Local Sidereal Time
07:24:23
Azimuth
Unknown
Elevation
Unknown
Doppler factor
Unknown
Orbital elements
Apogee altitude
486.257 km
Perigee altitude
483.632 km
Semi-major axis
6,863.082 km
Eccentricity
0.00019
Inclination
43.003°
RAAN
173.0022°
Arg. of periapsis
280.7921°
True anomaly
79.29304°
Mean anomaly
79.2715°
Eccentric anomaly
79.28227°
Mean motion
3.81737 °/min
Orbital period
94.31 mins
BSTAR
0.00064007
Loading maneuver chart data...
Computing Atmospheric mass density...
Loading historical data...
Loading historical data...
Loading historical data...
Loading historical data...
Loading historical data...
Loading historical data...
Loading historical data...

Documentation

Showing up to 5 results
|